Flag for Switzerland Weather past 2 weeks in Biel, Switzerland

Now
53 °F

Cool.


Feels Like: 52 °F
Forecast: 46 / 59 °F
Wind: 5 mph from Southwest

Location: Grenchen

Current Time: May 26, 2015 at 12:52:59 AM

Latest Report: May 26, 2015 at 12:00 AM


Visibility: N/A

Pressure: 30.01 "Hg

Humidity: 91%

Dew point: 50 °F

Location of BielLocation

Historic Weather in Biel — Graph

°F

Biel temperature yesterday

Maximum temperature yesterday: 64 °F (at 11:00 AM)
Minimum temperature yesterday: 53 °F (at 6:00 AM)
Average temperature yesterday: 58 °F

Past Weeks' High & Low Weather Summary

 TemperatureHumidityPressure
High83 °F (May 13, 5:00 PM)100% (May 12, 7:00 AM)30.36 "Hg (May 12, 7:00 AM)
Low38 °F (May 22, 5:00 AM)30% (May 13, 4:00 PM)29.73 "Hg (May 18, 8:00 PM)
Average57 °F71%30.08 "Hg
* Reported Midnight between May 10 and May 11 — Midnight between May 25 and May 26, Biel, Weather by CustomWeather, © 2015

Note: Actual official high and low records may vary slightly from our data, if they occured in-between our weather recording intervals... More about our weather records

Advertising

Biel weather history for previous 24 hours

 ConditionsComfort  
Time TempWeatherWind HumidityBarometerVisibility
12:00 AM
Tue, May 26
53 °FCool.5 mph91%30.01 "HgN/A
11:00 PM
Mon, May 25
54 °FCool.3 mph90%30.00 "HgN/A
10:00 PM56 °FCool.6 mph86%29.98 "HgN/A
9:00 PM56 °FCool.5 mph89%29.98 "HgN/A
8:00 PM57 °FCool.5 mph82%29.97 "HgN/A
7:00 PM61 °FCool.9 mph64%29.93 "HgN/A
6:00 PM64 °FMild.5 mph66%29.92 "HgN/A
5:00 PM62 °FCool.3 mph73%29.93 "HgN/A
4:00 PM62 °FCool.6 mph75%29.95 "HgN/A
3:00 PM59 °FCool.5 mph88%29.97 "HgN/A
2:00 PM60 °FCool.7 mph68%29.98 "HgN/A
1:00 PM63 °FMild.7 mph66%29.98 "HgN/A
12:00 PM62 °FCool.2 mph70%29.98 "HgN/A
11:00 AM64 °FMild.2 mph60%29.99 "HgN/A
10:00 AM61 °FCool.1 mph66%30.01 "HgN/A
9:00 AM57 °FCool.No wind78%30.03 "HgN/A
8:00 AM56 °FCool.1 mph84%30.03 "HgN/A
7:00 AM54 °FCool.No wind91%30.04 "HgN/A
6:00 AM53 °FCool.2 mph93%30.04 "HgN/A
5:40 AM54 °FCool.1 mph92%30.04 "HgN/A
5:00 AM54 °FCool.No wind88%30.04 "HgN/A
4:00 AM54 °FCool.No wind91%30.04 "HgN/A
3:00 AM55 °FCool.No wind88%30.04 "HgN/A
2:00 AM57 °FCool.2 mph78%30.04 "HgN/A
1:00 AM57 °FCool.1 mph78%30.05 "HgN/A
12:00 AM59 °FCool.2 mph66%30.04 "HgN/A
Weather by CustomWeather, © 2015

See weather overviewHow to use our weather pages